Weather in Tarutino

Ukraine / Odesa District     46°11′12″N   29°08′55″E
temp.,
°C
wind,
m/s
gust,
m/s
humid.,
%
clouds,
%
prec.,
mm/h
press.,
hPa
HPBL,
m
29 november, mon
mon2923:00+9s5128499 0.0 1001254
02:00+9sse6149080 0.0 998386
05:00+10s61388100 0.0 996378
08:00+12s71493100 0.1 993459
11:00+14s9147796 0.3 991846
14:00+14ssw81384100 0.6 989863
17:00+11w71177100 0.9 990564
20:00+10wnw61074100 1.2 996750
30 november, tue
tue3023:00+7nnw367794 0.0 998240
02:00+5nw48796 0.0 1002267
05:00+3n3678100 0.0 1003161
08:00+3n3667100 0.0 1004262
11:00+5n71051100 0.0 1003615
14:00+5n71250100 0.0 1002940
17:00+4nnw81353100 0.0 1003887
20:00+2nw410592 0.0 1004320
1 december, wed
wed123:00+1wsw37640 0.0 1006129
02:00+2wsw8155799 0.0 1005465
05:00+2sw8165686 0.0 1004578
08:00+1wsw8166683 0.0 1005490
11:00+6w8124879 0.0 1006788
14:00+8nw7113980 0.0 10061998
17:00+5nnw225432 0.0 100814
20:00+3s2260100 0.0 101011
2 december, thu
thu223:00+3sw367050 0.0 101095
02:00+2ssw4107648 0.0 1009175
05:00+3ssw514865 0.0 1009302
08:00+3ssw516845 0.0 1008377
11:00+9sw913515 0.0 1008492
14:00+11sw6947100 0.0 1006483
17:00+7ssw41162100 0.0 1007249
20:00+7ssw717575 0.0 1006427
3 december, fri
fri323:00+6s5136595 0.0 1006238
02:00+4s4117569 0.0 1005182
05:00+4s412825 0.0 1005212
08:00+5s5137750 0.0 1004237
11:00+10ssw71356100 0.0 1004393
14:00+13ssw71251100 0.0 1002492
17:00+10s51270100 0.0 1002277
20:00+9sw3984100 0.0 1003191